铱星星座 29星 (IRIDIUM 29)

导读 | 豆包AI

IRIDIUM 29(铱星29)是美国铱星通信系统的第一代通信卫星,于1997年9月14日发射入轨。卫星运行在近极地低地球轨道,轨道倾角约86.4度,近地点约754公里,周期约100分钟,为全球提供语音及数据通信服务。作为早期铱星系统组成部分,它支撑起全球卫星通信网络搭建,目前该卫星已退役,见证了铱星系统从初代部署到迭代升级的发展历程。

基本信息
目录编号:
24944
目录名称:
IRIDIUM 29
国际标识:
1997-051A
轨道中心:
EARTH
卫星名称:
铱星星座 29星
卫星全名:
铱星星座 29星 (IRIDIUM 29)
卫星状态:
在轨 (已飞行10409 天)
发射日期:
1997-09-14 UTC
国别 :
美国 (US)
星等 :
--
轨道信息
数据来源 国际轨道数据 AOE轨道数据
星历时间 2026-03-15T06:46:46+0800
11小时前
查看轨道信息
2026-03-14T13:00:00+0800
1天前
查看轨道信息
半长轴 7147.397km 7147.403km
偏心率 0.0002339 0.0002174
轨道倾角 86.397° 86.397°
近地点辐角 89.615° 90.610°
升交点赤经 30.201° 30.511°
平近点角 270.532° 40.256°
近地点 767.588km 767.712km
远地点 770.932km 770.82km
周期 100.226分钟 100.226分钟
每日圈数 14.367491 14.367472
详细信息
平衡模式:
三轴稳定
覆盖范围:
全球
运营商:
铱星通信公司
运营商所在国:
美国
使用方式:
暂无
卫星简介
铱星(Iridium)是由共66个运作中的通信卫星组成的卫星通信系统。这个系统原本规划77个通信卫星,所以用原子序数为77的铱元素来命名。铱卫星允许人们使用手持型电子设备进行全球性的语音及数据通讯。该卫星已退役。
2D轨道图
3D轨道图
轨道高度分析图
轨道倾角分析图
轨道综合分析图
查看轨道综合分析图